Location: *
(51.5000°N, 0.1100°W)
Time: 14:24:53
(UTC+00:00)

FENGYUN 1C DEB - Visible Passes

Search period start: 03 October 2024 00:00
Search period end: 13 October 2024 00:00
Orbit: 791 x 929 km, 99.1° (Epoch: 02 October)

Date Brightness Start Highest point End Pass type
(mag) Time Alt. Az. Time Alt. Az. Time Alt. Az.
03 Oct ? 18:53:40 14° SE 18:58:12 43° ENE 19:03:43 10° N visible
03 Oct ? 20:35:52 23° SSW 20:39:03 41° W 20:44:38 10° NNW visible
04 Oct ? 18:44:36 13° ESE 18:49:10 37° ENE 18:54:33 10° N visible
04 Oct ? 20:26:49 25° SSW 20:29:53 48° W 20:35:36 10° NNW visible
05 Oct ? 18:35:32 12° ESE 18:40:08 33° ENE 18:45:20 10° N visible
05 Oct ? 20:17:44 28° SSW 20:20:43 55° W 20:26:33 10° NNW visible
06 Oct ? 18:26:26 11° ESE 18:31:06 29° ENE 18:36:05 10° N visible
06 Oct ? 20:08:38 30° S 20:11:32 64° WSW 20:17:26 10° NNW visible
06 Oct ? 21:51:19 10° WSW 21:53:33 12° W 21:55:49 10° WNW visible
07 Oct ? 18:17:22 10° ESE 18:22:03 26° NE 18:26:48 10° N visible
07 Oct ? 19:59:31 32° S 20:02:21 75° WSW 20:08:18 10° NNW visible
07 Oct ? 21:41:44 11° WSW 21:44:12 15° W 21:47:21 10° NW visible
08 Oct ? 18:08:33 10° ESE 18:12:59 23° NE 18:17:28 10° N visible
08 Oct ? 19:50:23 33° SSE 19:53:09 85° WSW 19:59:08 10° NNW visible
08 Oct ? 21:32:35 14° WSW 21:34:51 17° W 21:38:37 10° NW visible
09 Oct ? 17:59:46 10° E 18:03:54 20° NE 18:08:05 10° N visible
09 Oct ? 19:41:13 34° SSE 19:43:57 84° ENE 19:49:55 10° NNW visible
09 Oct ? 21:23:25 17° WSW 21:25:30 20° W 21:29:45 10° NW visible
10 Oct ? 17:51:01 10° E 17:54:50 18° NE 17:58:39 10° N visible
10 Oct ? 19:32:02 34° SSE 19:34:44 73° ENE 19:40:39 10° NNW visible
10 Oct ? 21:14:13 20° WSW 21:16:08 23° W 21:20:47 10° NW visible
11 Oct ? 17:42:19 10° E 17:45:44 16° NE 17:49:09 10° NNE visible
11 Oct ? 19:22:49 33° SE 19:25:30 63° ENE 19:31:22 10° N visible
11 Oct ? 21:05:01 24° WSW 21:06:45 27° W 21:11:44 10° NW visible
12 Oct ? 19:13:36 31° SE 19:16:16 55° ENE 19:22:03 10° N visible
12 Oct ? 20:55:48 28° WSW 20:57:22 32° W 21:02:37 10° NNW visible
